8OJDFAOP Weather Reports


time (UTC)temp
C
wind
direction
speed
KPH
gust
KPH
rain 1hr
cm
rain 24hr
cm
rain mn
cm
humidity
%
barometer
mb
20260504204517 10 295 8.0 17.7 0.00 0.00 0.00 41 1015.3
20260504203012 10 312 9.7 16.1 0.00 0.00 0.00 42 1015.4
20260504201515 9 309 6.4 14.5 0.00 0.00 0.00 44 1015.6
20260504200026 9 311 6.4 16.1 0.00 0.00 0.00 44 1015.7
20260504194523 9 305 9.7 17.7 0.00 0.00 0.00 44 1015.7
20260504193023 10 332 11.3 17.7 0.00 0.00 0.00 41 1015.6
20260504191526 10 308 9.7 17.7 0.00 0.00 0.00 40 1015.7
20260504190017 10 328 11.3 17.7 0.00 0.00 0.00 40 1015.7
20260504184519 9 313 6.4 16.1 0.00 0.00 0.00 41 1015.7
20260504183024 9 300 9.7 14.5 0.00 0.00 0.00 40 1015.7
20260504181526 9 346 6.4 11.3 0.00 0.00 0.00 41 1015.8
20260504180018 9 296 4.8 12.9 0.00 0.00 0.00 45 1015.8
20260504174526 8 238 4.8 12.9 0.00 0.00 0.00 49 1015.8
20260504173019 8 265 8.0 12.9 0.00 0.00 0.00 48 1015.7
20260504171530 8 259 9.7 14.5 0.00 0.00 0.00 48 1015.7
20260504081519 7 63 3.2 8.0 0.00 0.00 0.00 52 1011.4
20260504050004 10 298 1.6 9.7 0.00 0.00 0.00 45 1010.1
20260504044511 10 283 3.2 6.4 0.00 0.00 0.00 44 1010.2
20260504043005 11 299 3.2 6.4 0.00 0.00 0.00 43 1010.1
20260504041510 11 280 3.2 6.4 0.00 0.00 0.00 40 1010.1
20260504040010 12 253 0.0 6.4 0.00 0.00 0.00 37 1010.0
20260504034516 12 255 1.6 4.8 0.00 0.00 0.00 36 1009.7
20260504033003 11 9 0.0 1.6 0.00 0.00 0.00 39 1009.6
20260504031507 13 35 1.6 4.8 0.00 0.00 0.00 35 1009.5
20260504030010 14 294 1.6 4.8 0.00 0.00 0.00 34 1009.3
20260504024514 14 274 1.6 6.4 0.00 0.00 0.00 34 1009.2
20260504023019 16 314 1.6 12.9 0.00 0.00 0.00 30 1009.2
20260504021509 17 4 1.6 6.4 0.00 0.00 0.00 29 1009.3
20260504020005 19 335 6.4 19.3 0.00 0.00 0.00 26 1009.1
20260504014523 19 5 6.4 12.9 0.00 0.00 0.00 26 1009.3
20260504013016 20 24 6.4 17.7 0.00 0.00 0.00 25 1009.3
20260504011518 20 28 8.0 24.1 0.00 0.00 0.00 24 1009.4
20260504010004 21 29 11.3 19.3 0.00 0.00 0.00 24 1009.6
20260504004508 21 5 11.3 24.1 0.00 0.00 0.00 26 1009.4
20260504003012 22 15 9.7 20.9 0.00 0.00 0.00 23 1009.6
20260504001522 22 360 11.3 19.3 0.00 0.00 0.00 22 1009.7
20260504000022 22 7 9.7 19.3 0.00 0.00 0.00 24 1009.8
20260503234506 22 338 6.4 19.3 0.00 0.00 0.00 24 1009.8
20260503233009 21 14 6.4 12.9 0.00 0.00 0.00 25 1009.7
20260503231524 21 333 6.4 14.5 0.00 0.00 0.00 25 1009.8
20260503230026 21 5 6.4 12.9 0.00 0.00 0.00 26 1009.9
20260503224523 21 15 6.4 19.3 0.00 0.00 0.00 25 1010.0
20260503223007 21 8 8.0 17.7 0.00 0.00 0.00 26 1010.0
20260503221512 21 299 12.9 24.1 0.00 0.00 0.00 22 1010.1
20260503220015 22 289 17.7 30.6 0.00 0.00 0.00 21 1010.4
20260503214520 22 295 16.1 30.6 0.00 0.00 0.00 23 1010.6
20260503213029 22 273 19.3 33.8 0.00 0.00 0.00 21 1010.8
20260503211509 22 278 17.7 32.2 0.00 0.00 0.00 22 1010.8
20260503210016 22 239 12.9 24.1 0.00 0.00 0.00 21 1011.1